Regional Weather Roundup
Issued by NWS San Diego, CA

Home | Current Version | Previous Version | Text Only | Print | Product List | Glossary On
Versions: 1 2 3 4 5 6 7 8 9 10 11 12 13 14 15 16 17 18 19 20 21 22 23 24 25 26 27 28 29 30 31 32 33 34 35 36 37 38 39 40 41 42 43 44 45 46 47 48 49 50
885
ASUS46 KSGX 181011
RWRSGX

SAN DIEGO HOURLY WEATHER ROUNDUP
NATIONAL WEATHER SERVICE SAN DIEGO CA
200 AM PST MON DEC 18 2017

NOTE: "FAIR" INDICATES FEW OR NO CLOUDS BELOW 12,000 FEET WITH NO
SIGNIFICANT WEATHER AND/OR OBSTRUCTIONS TO VISIBILITY.

CAZ042-043-060-061-PZZ750-775-181100-

GREATER SAN DIEGO AREA

CITY           SKY/WX    TMP DP  RH WIND       PRES   REMARKS
SAN DIEGO AP   CLEAR     54  27  35 CALM      30.09R
NATIONAL CITY    N/A     49  32  52 CALM      30.10R
CHULA VISTA      N/A     46  32  57 CALM      29.99R
IMPERIAL BEACH CLEAR     48  25  40 N8        30.08R
BROWN FIELD    CLEAR     47  24  40 NE3       30.07R
MIRAMAR MCAS   CLEAR     48  23  37 E8        30.07R
MONTGOMERY FLD CLEAR     53  24  32 NE3       30.08R
GILLESPIE FLD  FAIR      43  27  52 N3        30.08R

$$

NORTH SAN DIEGO COUNTY

CITY           SKY/WX    TMP DP  RH WIND       PRES   REMARKS
CAMP PENDLETON CLEAR     37  21  52 CALM      30.09R
OCEANSIDE AP   NOT AVBL
OCEANSIDE HBR    N/A     53  28  38 NE5       30.09R
VISTA            N/A     53  25  34 CALM      30.06R
CARLSBAD       CLEAR     52  25  35 E3        30.07R
DEL MAR          N/A     54  27  35 CALM      30.10R
LA JOLLA SCRIP   N/A     57  27  31 NE3       30.08R
FALLBROOK        N/A     55  25  31 CALM      30.10R
ESCONDIDO        N/A     46  30  54 CALM      30.10R
SAN MARCOS       N/A     50  27  40 CALM      30.10R
POWAY            N/A     41  28  60 CALM      30.12R

$$

EAST SAN DIEGO COUNTY

CITY           SKY/WX    TMP DP  RH WIND       PRES   REMARKS
RAMONA         CLEAR     38  19  46 CALM      30.09R
LA MESA          N/A     51  25  36 CALM      30.01R
JAMUL            N/A     45  23  42 CALM      30.09R
DESCANSO N       N/A     45  22  39 NE2       30.05R
MT. LAGUNA OBS   N/A     36  15  41 E13       30.09R WCI  28
CAMPO            N/A     35  16  45 NE10      30.05R WCI  27

$$

ORANGE COUNTY AND THE LOS ANGELES BASIN

CITY           SKY/WX    TMP DP  RH WIND       PRES   REMARKS
JOHN WAYNE AP  CLEAR     51  30  44 CALM      30.07R
LAGUNA BEACH     N/A     43  27  53 CALM      30.03R
LAKE FOREST FR   N/A     52  17  24 CALM      29.95R
HUNTINGTON BCH   N/A     51  30  45 CALM      30.09R
LOS ALAMITOS   FAIR      49  26  40 NW8       30.08R
FULLERTON      CLEAR     50  27  40 E3        30.07R
LONG BEACH     CLEAR     52  27  38 N3        30.08R
L.A. AP        CLEAR     56  22  26 E3        30.09R
L.A. DOWNTOWN  CLEAR     55  21  26 CALM      30.08R

$$

THE INLAND EMPIRE

CITY           SKY/WX    TMP DP  RH WIND       PRES   REMARKS
CORONA         CLEAR     54  18  24 SE8       30.10R
CHINO          CLEAR     41  28  60 CALM      30.11R
ONTARIO        CLEAR     47  20  34 N5        30.09R
SAN BERNARDINO FAIR      44  20  38 E5        30.11S
RIVERSIDE AP   CLEAR     50  21  32 SE3       30.10R
MORENO VALLEY    N/A     52  28  39 SE3       28.21R
MARCH ARB      CLEAR     34  14  42 CALM      30.10R
HORSETHIEF CYN   N/A     51  13  21 NW3       30.12R
PERRIS           N/A     46  27  46 CALM      30.05R
HEMET EAST       N/A     46  13  25 CALM      30.15R
FRENCH VALLEY  FAIR      41  21  45 NE3       30.11R
TEMECULA         N/A     42  28  56 CALM      30.17R

$$

SAN BERNARDINO AND RIVERSIDE COUNTY MOUNTAINS

CITY           SKY/WX    TMP DP  RH WIND       PRES   REMARKS
BIG BEAR AP    PTCLDY    16   9  73 CALM      30.18R
ANGELUS OAKS     N/A     34  13  42 CALM      30.13R

$$

SOUTHERN DESERT INCLUDING THE COACHELLA VALLEY

CITY           SKY/WX    TMP DP  RH WIND       PRES   REMARKS
PALM SPRINGS   CLEAR     56  19  23 W6        30.12R
THOUSAND PALMS   N/A     50  17  26 N3        30.08R
PALM DESERT      N/A     52  23  32 CALM        N/A
THERMAL        CLEAR     50  20  30 N7        30.08R
BLYTHE         CLEAR     50  16  25 NW7       30.09R
IMPERIAL AP    CLEAR     44  24  45 W6        30.08R
EL CENTRO NAS  CLEAR     41  20  43 W7        30.11R
YUMA AZ        CLEAR     55  18  23 N7        30.07R

$$

UPPER DESERT

CITY           SKY/WX    TMP DP  RH WIND       PRES   REMARKS
HESPERIA         N/A     31  13  47 CALM      30.39R
APPLE VALLEY     N/A     23  15  71 NW2       30.28R
PALMDALE       PTCLDY    29  10  45 S9        30.21R WCI  20
LANCASTER      PTCLDY    25   3  38 S5        30.21R WCI  19
EDWARDS AFB    PTCLDY    27   2  34 W6        30.19R WCI  20
DAGGETT        CLEAR     37  12  35 W12       30.19R WCI  29
29 PALMS N     CLEAR     43  11  27 NW8       30.24R
NEEDLES        CLEAR     53  21  28 N8        30.12R

$$

REGIONAL REPORTS

CITY           SKY/WX    TMP DP  RH WIND       PRES   REMARKS
SANTA BARBARA  CLEAR     39  31  72 CALM      30.09F
SANDBERG       CLEAR     39   3  22 NE7       30.18R WCI  34
LAS VEGAS NV   PTCLDY    43  16  33 CALM      30.18R
PHOENIX AZ     PTCLDY    50  45  83 CALM      30.02S
TIJUANA        CLEAR     55  19  24 E7        30.08R
ENSENADA NW      N/A     59  32  35 CALM      30.00R

$$

OFFSHORE ISLANDS

CITY           SKY/WX    TMP DP  RH WIND       PRES   REMARKS
CATALINA ARPT  CLEAR     57  21  24 N7        30.10R
SAN NICOLAS IS CLEAR     55  32  41 N12       30.09R

$$

MARINE AND OFFSHORE BUOY REPORTS

STATION/POSITION SKY/WX   TEMP    WIND        PRES    VSBY  SWELL
                          AIR SEA DIR/SP/G                  HT/PER/DIR
                          (F)     (DEG/KT/KT) (MB)    (MI)  (FT/S/D)
TANNER BANKS               61 62              1017.9R
S CLEMENTE BASIN           63 63  230/  2/  2 1018.4R         5/270/11
SAN NICOLAS IS.               61                N/A           5/310/11
SO. S. ROSA ISLA           58 58  360/  4/  6 1018.5R         7/300/11
W. S. BARBARA CH           59 58   30/  4/  6 1018.7R         7/300/11
M. S. BARBARA CH           59 60   50/  4/  6 1020.0R         3/280/12
S. MONICA BASIN               60   30/  6/  8 1018.1R         2/270/13
S PEDRO CHANNEL               62                N/A           2/270/13
CMP PENDLETON NS              61                N/A           2/220/13
OCEANSIDE OFFSHR              62                N/A           2/240/13
TORREY PINES OTR              63                N/A           2/280/12
SAN DIEGO BAY                 63              1018.9R
POINT LOMA SOUTH              64                N/A           3/280/12

$$





USA.gov is the U.S. government's official web portal to all federal, state and local government web resources and services.